Погода Fujairah

Поиск расширенной информации на нашем сайте:

Полезная информация:

Новости сайта



02.01.2020
Опубликован Долгосрочный прогноз погоды по городам России и ближнего зарубежья на январь 2020 года.
Карты: Прогноз на январь и февраль 2020 года, Сравнение прогнозируемой аномалии приземной температуры воздуха на январь 2020 года по разным моделям.




Погода Fujairah - сегодня

Время (UTC), дата Ветер
(°,м/с) 
Видим.   Явления Облачность Т
(°С)
Тd
(°С)
f(%) Тe
(°С)
Pmin
(гПа)
dP
(гПа)
Po
(мм)
O2
(г/м3)
Тmin Tmax R s Состояние
почвы
06 27.10.20 230 (ЮЗ) 10 км    ясно 
+30.6 +11.8 32 +34  1015.6    759  272  +21.7         
09 27.10.20 100 (В) 10 км    ясно 
+30.9 +12.1 32 +35  1013.8    756  272           
12 27.10.20 080 (В) 10 км    ясно 
+29.9 +14.5 39 +38  1012.8    756  272           
15 27.10.20 170 (Ю) 10 км    ясно 
+27.6 +13.2 41 +33  1013.7    756  274           
18 27.10.20 270 (З) 10 км    ясно 
+25.9 +12.9 45 +31  1014.5    757  276    +31.7       
21 27.10.20 300 (СЗ) 10 км    ясно 
+23.1 +11.2 47 +26  1013.8    756  279           
00 28.10.20 310 (СЗ) 10 км    ясно 
+21.8 +5.3 34 +22  1013.3    758  281           
03 28.10.20 290 (З) 10 км    ясно 
+22.1 -0.3 22 +22  1014.9    757  282           
06 28.10.20 080 (В) 10 км    ясно 
+30.6 +6.9 23 +31  1016    758  274  +21         
09 28.10.20 100 (В) 10 км    ясно 
+31.7 +7.8 23 +32  1014    757  272           
12 28.10.20 100 (В) 10 км    ясно 
+31.4 +9.9 27 +32  1012.8    756  271           
15 28.10.20 200 (Ю) 10 км    ясно 
+27.8 +12.2 38 +32  1013.6    758  274           
18 28.10.20 260 (З) 4000 м  мгла  ясно 
+25.1 +7.5 33 +25  1014.5    757  278    +32.9       
21 28.10.20 270 (З) 10 км    ясно 
+24.1 -3.1 16 +24  1013.6    756  280           
00 29.10.20 310 (СЗ) 10 км    ясно 
+23.3 -1.6 19 +23  1013.5    756  281           
03 29.10.20 310 (СЗ) 10 км    ясно 
+23.1 -5.8 14 +23  1015    757  282           
06 29.10.20 120 (ЮВ) 10 км    ясно 
+33.3 +0.1 12 +33  1016.2    760  272  +22.3         
09 29.10.20 100 (В) 10 км    ясно 
+32.6 +6.7 20 +33  1014.8    757  272           
12 29.10.20 120 (ЮВ) 10 км    ясно 
+32 +7.6 22 +32  1014    757  272           
15 29.10.20 190 (Ю) 10 км    ясно 
+28.2 +8.6 29 +28  1014.8    757  275           
18 29.10.20 310 (СЗ) 10 км    ясно 
+25.2 +1.4 21 +25  1015.3    757  279    +33.9       
21 29.10.20 290 (З) 10 км    ясно 
+23.8 -4.3 15 +24  1014.4    757  281           
00 30.10.20 310 (СЗ) 10 км    ясно 
+23.4 -7.6 12 +23  1014.1    757  281           
03 30.10.20 310 (СЗ) 10 км    ясно 
+22.5 -9 11 +23  1015.4    758  283           
06 30.10.20 080 (В) 10 км    ясно 
+31.2 +6.3 21 +31  1016.9    759  273  +21.2         
Время (UTC), дата Ветер
(°,м/с) 
Видим.   Явления Облачность Т
(°С)
Тd
(°С)
f(%) Тe
(°С)
Pmin
(гПа)
dP
(гПа)
Po
(мм)
O2
(г/м3)
Тmin Tmax R s Состояние
почвы

Для получения пояснительной информации подведите курсор к названию столбца.

ПОГОДА Fujairah - архив

Всё, что Вы хотите узнать о погоде Fujairah - удобно и подробно!

Выберите нужную дату (начиная с 1 января 2019* года) и нажмите кнопку "Найти".
Будут отображены архивные сводки погоды по пункту Fujairah, начиная с указанной даты.


Отображать данные в формате CSV (для использования в таблицах Excel)


Внимание! Наш архив погоды предназначен исключительно для личного некоммерческого использования в познавательных целях. Если Вам необходимы официальные справки о состоянии погоды (для производственных, юридических, коммерческих и т.п. целей), обращайтесь в органы Росгидромета.

*Примечание: данная дата относится к архиву по метеостанциям СССР (Россия, СНГ, Балтия).
Архив по метеостанциям Зарубежной Европы и Азии (кроме Китая) хранится 10 дней, по другим регионам земного шара (Китай, Африка, Америка, Австралия, Океания) - 1 день.

Fujairah - район местоположения метеостанции


Название, широта, долгота, высота метеостанции:
Fujairah 25.1°ш. 56.3°д. 28 м над ур. моря [United Arab emirates]

Дополнительная информация

В oтличие oт бoльшинства пoгoдных сайтoв мы публикуем пoдрoбную метеoинфoрмацию в детальнoм прoфессиoнальнoм фoрмате.

Характеристики температуры и влажнoсти вoздуха измеряются на высoте 2 м в тени вдали oт зданий и деревьев.
Скoрoсть ветра измеряется на высoте 10 м (на урoвне рoста челoвека скoрoсть ветра ниже в 1.5-2 раза). Если метеoстанция нахoдится в гoрoде или в лесу, тo скoрoсть ветра занижена на 2-4 м/с пo сравнению с oткрытым местoм. Скoрoсть ветра над акватoриями крупных рек и oзёр, а также на вершинах хoлмoв на 2-5 м/с выше, чем в oбычных услoвиях.
Атмoсфернoе давление в разных тoчках местнoсти мoжет значительнo oтличаться oт давления на метеoстанции, в зависимoсти oт услoвий рельефа (при пoдъёме на 10 м давление пoнижается примернo на 1 мм рт.ст.).